Flag for USA

Past Weather in 42°20'35.4"N, 71°01'49.5"W, USA — Yesterday and Last 2 Weeks

Currently: 68 °F. Passing clouds. (Weather station: Logan International Airport, USA). See more current weather

Past Weather in 42°20'35.4"N, 71°01'49.5"W — Graph

°F

42°20'35.4"N, 71°01'49.5"W Temperature Yesterday

Maximum temperature yesterday: 87 °F (at 1:54 pm)
Minimum temperature yesterday: 70 °F (at 10:54 pm)
Average temperature yesterday: 78 °F

High & Low Weather Summary for the Past Weeks

 TemperatureHumidityPressure
High94 °F (Jul 16, 1:54 pm)93% (Jul 13, 9:54 pm)30.27 "Hg (Jul 13, 9:54 pm)
Low65 °F (Jul 24, 5:54 am)32% (Jul 26, 2:54 pm)29.81 "Hg (Jul 21, 5:54 pm)
Average74 °F73%29.99 "Hg
* Reported Jul 13 8:54 pm — Jul 28 8:54 pm, 42°20'35.4"N, 71°01'49.5"W. Weather by CustomWeather, © 2021

Note: Actual official high and low records may vary slightly from our data, if they occured in-between our weather recording intervals... More about our weather records

42°20'35.4"N, 71°01'49.5"W Weather History for the Previous 24 Hours

Scroll right to see more
 ConditionsComfort  
Time TempWeatherWind HumidityBarometerVisibility
8:54 pm
Wed, Jul 28
69 °FPassing clouds.6 mph68%30.01 "Hg10 mi
7:54 pm69 °FPassing clouds.6 mph63%30.01 "Hg10 mi
6:54 pm70 °FScattered clouds.6 mph59%30.01 "Hg10 mi
5:54 pm71 °FPassing clouds.7 mph61%30.01 "Hg10 mi
4:54 pm72 °FPassing clouds.10 mph59%30.01 "Hg10 mi
3:54 pm72 °FPassing clouds.13 mph61%30.00 "Hg10 mi
2:54 pm73 °FScattered clouds.13 mph57%30.01 "Hg10 mi
1:54 pm74 °FScattered clouds.12 mph57%30.01 "Hg10 mi
12:54 pm73 °FBroken clouds.10 mph64%30.01 "Hg10 mi
12:24 pm73 °FMore clouds than sun.7 mph62%30.02 "Hg10 mi
11:54 am71 °FPartly sunny.8 mph71%30.02 "Hg10 mi
11:12 am69 °FCloudy.10 mph70%30.02 "Hg10 mi
10:54 am69 °FMore clouds than sun.6 mph73%30.01 "Hg10 mi
9:54 am67 °FCloudy.12 mph81%30.00 "Hg10 mi
9:25 am66 °FDrizzle. Fog.13 mph87%30.00 "Hg5 mi
8:54 am67 °FLow clouds.13 mph81%30.00 "Hg10 mi
8:34 am68 °FOvercast.12 mph78%30.00 "Hg10 mi
7:54 am68 °FOvercast.9 mph78%29.98 "Hg10 mi
7:08 am68 °FOvercast.8 mph78%29.97 "Hg10 mi
6:54 am68 °FMostly cloudy.10 mph78%29.96 "Hg10 mi
5:54 am68 °FOvercast.7 mph82%29.96 "Hg10 mi
4:54 am68 °FOvercast.7 mph78%29.95 "Hg10 mi
3:54 am68 °FOvercast.6 mph82%29.95 "Hg10 mi
2:54 am68 °FOvercast.12 mph84%29.93 "Hg10 mi
2:09 am70 °FOvercast.9 mph79%29.92 "Hg10 mi
2:01 am68 °FOvercast.9 mph84%29.92 "Hg10 mi
1:05 am69 °FMostly cloudy.10 mph87%29.92 "Hg10 mi
12:54 am70 °FMostly cloudy.9 mph84%29.91 "Hg10 mi
11:54 pm
Tue, Jul 27
70 °FMostly cloudy.6 mph87%29.93 "Hg10 mi
10:54 pm70 °FMostly cloudy.6 mph84%29.93 "Hg10 mi
Weather by CustomWeather, © 2021

See weather overview